User: anonymous   Login
Location: Unspecified
(0.0000°N, 0.0000°E)
Time: 07:18:50
(UTC+00:00)
Language:

COSMOS 2488 - Orbit

View from above orbital plane
View from above orbital plane
View from above satellite
View from above satellite

Ground track
Ground track

The orbit data is extracted from the following two-line orbital elements,

1 39483U 13076A   25193.90264420  .00000009  00000-0 -82951-5 0  9991
2 39483  82.4835  20.1286 0019949 114.1604 246.1564 12.42864205523740
Epoch (UTC): 12 July 2025 21:39:48
Eccentricity: 0.0019949
inclination: 82.4835°
perigee height: 1479 km
apogee height: 1510 km
right ascension of ascending node: 20.1286°
argument of perigee: 114.1604°
revolutions per day: 12.42864205
mean anomaly at epoch: 246.1564°
orbit number at epoch: 52374

The dashed part of the orbit path shows where the satellite is in the earth's shadow,  

DLR